Radiation Dose at Monitoring Post of Fukushima Daini Nuclear Power Station
Date,Time,MP-1(microSv/h),MP-2(microSv/h),MP-3(microSv/h),MP-4(microSv/h),MP-5(microSv/h),MP-6(microSv/h),MP-7(microSv/h),Wind Direction,Wind Velocity(m/s),Rain
2019/02/26,00:00,0.217,0.196,0.318,0.296,0.279,0.159,0.096,north-northwest,8.6,No
2019/02/26,00:10,0.217,0.196,0.318,0.297,0.278,0.160,0.097,north-northwest,8.8,No
2019/02/26,00:20,0.217,0.196,0.317,0.297,0.278,0.160,0.096,north-northwest,8.2,No
2019/02/26,00:30,0.217,0.195,0.319,0.297,0.279,0.160,0.096,north-northwest,9.0,No
2019/02/26,00:40,0.216,0.196,0.318,0.297,0.280,0.160,0.096,north-northwest,8.3,No
2019/02/26,00:50,0.217,0.196,0.318,0.298,0.278,0.160,0.096,north-northwest,8.9,No
2019/02/26,01:00,0.217,0.196,0.317,0.298,0.279,0.160,0.096,north-northwest,8.9,No
2019/02/26,01:10,0.217,0.195,0.318,0.297,0.279,0.159,0.096,north-northwest,8.6,No
2019/02/26,01:20,0.216,0.196,0.318,0.296,0.279,0.159,0.096,north-northwest,9.0,No
2019/02/26,01:30,0.216,0.196,0.317,0.295,0.279,0.159,0.096,north-northwest,7.8,No
2019/02/26,01:40,0.217,0.195,0.318,0.297,0.280,0.159,0.096,north-northwest,8.4,No
2019/02/26,01:50,0.216,0.195,0.320,0.296,0.280,0.159,0.097,north,6.7,No
2019/02/26,02:00,0.217,0.195,0.318,0.297,0.278,0.160,0.096,north,6.0,No
2019/02/26,02:10,0.217,0.196,0.318,0.296,0.278,0.160,0.096,north,6.4,No
2019/02/26,02:20,0.216,0.196,0.319,0.297,0.279,0.159,0.095,north,5.8,No
2019/02/26,02:30,0.217,0.196,0.318,0.297,0.278,0.160,0.097,north,7.6,No
2019/02/26,02:40,0.217,0.196,0.318,0.296,0.279,0.159,0.096,north,6.5,No
2019/02/26,02:50,0.216,0.196,0.318,0.299,0.278,0.160,0.096,north,7.6,No
2019/02/26,03:00,0.217,0.197,0.318,0.296,0.279,0.159,0.095,north-northwest,7.6,No
2019/02/26,03:10,0.217,0.195,0.318,0.297,0.278,0.159,0.096,north,8.8,No
2019/02/26,03:20,0.216,0.196,0.317,0.296,0.279,0.160,0.096,north-northwest,7.3,No
2019/02/26,03:30,0.217,0.195,0.320,0.297,0.278,0.160,0.097,north-northwest,7.3,No
2019/02/26,03:40,0.218,0.195,0.318,0.297,0.279,0.159,0.096,north-northwest,6.5,No
2019/02/26,03:50,0.216,0.195,0.317,0.297,0.278,0.160,0.096,north-northwest,7.3,No
2019/02/26,04:00,0.216,0.196,0.318,0.298,0.278,0.160,0.096,north-northwest,7.5,No
2019/02/26,04:10,0.217,0.196,0.316,0.297,0.278,0.159,0.096,north-northwest,7.5,No
2019/02/26,04:20,0.218,0.196,0.317,0.296,0.279,0.160,0.096,north-northwest,7.9,No
2019/02/26,04:30,0.217,0.196,0.318,0.296,0.280,0.159,0.096,north-northwest,7.5,No
2019/02/26,04:40,0.216,0.196,0.318,0.297,0.279,0.160,0.095,north-northwest,8.4,No
2019/02/26,04:50,0.217,0.196,0.317,0.297,0.279,0.160,0.096,north-northwest,8.1,No
2019/02/26,05:00,0.217,0.196,0.317,0.296,0.279,0.160,0.095,north,7.7,No
2019/02/26,05:10,0.216,0.195,0.319,0.297,0.278,0.159,0.096,north-northwest,9.5,No
2019/02/26,05:20,0.218,0.196,0.319,0.297,0.278,0.160,0.096,north-northwest,8.4,No
2019/02/26,05:30,0.217,0.196,0.319,0.296,0.279,0.160,0.096,north-northwest,6.8,No
2019/02/26,05:40,0.217,0.196,0.319,0.297,0.278,0.159,0.096,north-northwest,6.4,No
2019/02/26,05:50,0.216,0.196,0.317,0.297,0.279,0.160,0.096,north-northwest,7.3,No
2019/02/26,06:00,0.217,0.196,0.318,0.297,0.279,0.160,0.096,north-northwest,6.2,No
2019/02/26,06:10,0.217,0.195,0.319,0.296,0.278,0.159,0.096,north-northwest,6.5,No
2019/02/26,06:20,0.218,0.197,0.318,0.298,0.278,0.160,0.096,north-northwest,6.2,No
2019/02/26,06:30,0.217,0.195,0.319,0.297,0.278,0.159,0.096,north-northwest,5.9,No
2019/02/26,06:40,0.217,0.197,0.318,0.297,0.279,0.160,0.097,north-northwest,6.3,No
2019/02/26,06:50,0.216,0.196,0.318,0.296,0.278,0.159,0.096,north-northwest,7.4,No
2019/02/26,07:00,0.216,0.197,0.319,0.296,0.277,0.160,0.095,north-northwest,7.3,No
2019/02/26,07:10,0.217,0.196,0.319,0.297,0.279,0.160,0.096,north-northwest,7.3,No
2019/02/26,07:20,0.217,0.196,0.318,0.297,0.277,0.159,0.095,north-northwest,7.4,No
2019/02/26,07:30,0.216,0.196,0.319,0.298,0.278,0.160,0.096,north-northwest,6.7,No
2019/02/26,07:40,0.216,0.195,0.317,0.296,0.278,0.160,0.096,north-northwest,6.8,No
2019/02/26,07:50,0.215,0.195,0.317,0.296,0.278,0.159,0.097,north-northwest,6.5,No
2019/02/26,08:00,0.217,0.196,0.318,0.296,0.279,0.159,0.096,north-northwest,6.7,No
2019/02/26,08:10,0.218,0.196,0.317,0.297,0.277,0.159,0.096,north-northwest,5.4,No
2019/02/26,08:20,0.216,0.196,0.318,0.297,0.278,0.159,0.096,north-northwest,4.5,No
2019/02/26,08:30,0.217,0.194,0.318,0.296,0.277,0.159,0.096,north-northwest,4.8,No
2019/02/26,08:40,0.217,0.195,0.318,0.297,0.278,0.160,0.096,north-northwest,5.5,No
2019/02/26,08:50,0.216,0.196,0.317,0.296,0.279,0.159,0.095,north,3.7,No
2019/02/26,09:00,0.217,0.195,0.318,0.295,0.279,0.160,0.095,north-northeast,4.3,No
2019/02/26,09:10,0.216,0.196,0.317,0.297,0.278,0.159,0.095,north,5.6,No
2019/02/26,09:20,0.216,0.195,0.318,0.295,0.280,0.159,0.095,north,6.1,No
2019/02/26,09:30,0.215,0.194,0.318,0.295,0.277,0.159,0.095,north-northeast,6.2,No
2019/02/26,09:40,0.216,0.195,0.317,0.295,0.277,0.158,0.095,north-northeast,7.8,No
2019/02/26,09:50,0.215,0.195,0.319,0.294,0.279,0.160,0.095,north-northeast,7.8,No
2019/02/26,10:00,0.216,0.195,0.317,0.296,0.277,0.159,0.095,north,6.7,No
2019/02/26,10:10,0.217,0.195,0.317,0.294,0.279,0.158,0.095,north-northeast,6.0,No
2019/02/26,10:20,0.217,0.195,0.318,0.295,0.278,0.159,0.096,north-northeast,7.0,No
2019/02/26,10:30,0.216,0.194,0.318,0.295,0.278,0.158,0.096,north-northeast,8.5,No
2019/02/26,10:40,0.216,0.195,0.317,0.294,0.279,0.159,0.096,north-northeast,6.4,No
2019/02/26,10:50,0.215,0.195,0.317,0.295,0.277,0.159,0.095,north-northeast,8.1,No
2019/02/26,11:00,0.216,0.195,0.318,0.295,0.279,0.158,0.095,north-northeast,7.3,No
2019/02/26,11:10,0.216,0.194,0.320,0.295,0.278,0.158,0.095,north-northeast,6.4,No
2019/02/26,11:20,0.216,0.196,0.316,0.294,0.279,0.158,0.096,northeast,6.7,No
2019/02/26,11:30,0.215,0.196,0.315,0.295,0.279,0.158,0.096,north-northeast,6.3,No
2019/02/26,11:40,0.217,0.196,0.317,0.295,0.278,0.159,0.094,northeast,6.6,No
2019/02/26,11:50,0.216,0.195,0.315,0.295,0.281,0.159,0.096,northeast,5.6,No
2019/02/26,12:00,0.216,0.196,0.317,0.295,0.278,0.160,0.096,north-northeast,7.0,No
2019/02/26,12:10,0.218,0.194,0.317,0.296,0.281,0.160,0.095,north-northeast,5.2,No
2019/02/26,12:20,0.216,0.196,0.317,0.295,0.277,0.158,0.094,northeast,4.8,No
2019/02/26,12:30,0.216,0.195,0.318,0.296,0.280,0.159,0.095,north-northeast,6.5,No
2019/02/26,12:40,0.216,0.195,0.315,0.294,0.279,0.158,0.095,northeast,5.0,No
2019/02/26,12:50,0.216,0.197,0.318,0.295,0.279,0.159,0.095,north-northeast,5.6,No
2019/02/26,13:00,0.218,0.196,0.315,0.296,0.278,0.159,0.096,north-northeast,4.5,No
2019/02/26,13:10,0.215,0.196,0.317,0.295,0.278,0.160,0.095,north-northeast,4.9,No
2019/02/26,13:20,0.216,0.196,0.318,0.295,0.279,0.158,0.095,northeast,5.6,No
2019/02/26,13:30,0.217,0.195,0.317,0.297,0.277,0.159,0.095,northeast,3.9,No
2019/02/26,13:40,0.216,0.196,0.316,0.296,0.280,0.158,0.095,northeast,5.1,No
2019/02/26,13:50,0.218,0.196,0.317,0.295,0.278,0.160,0.096,north-northeast,5.1,No
2019/02/26,14:00,0.215,0.195,0.318,0.295,0.281,0.160,0.096,north-northeast,4.3,No
2019/02/26,14:10,0.216,0.197,0.315,0.297,0.278,0.159,0.096,northeast,5.4,No
2019/02/26,14:20,0.217,0.195,0.317,0.296,0.279,0.159,0.096,north-northeast,5.4,No
2019/02/26,14:30,0.217,0.195,0.318,0.297,0.279,0.159,0.096,north-northeast,4.9,No
2019/02/26,14:40,0.217,0.196,0.318,0.296,0.279,0.159,0.095,northeast,4.8,No
2019/02/26,14:50,0.216,0.196,0.317,0.297,0.281,0.157,0.096,northeast,4.4,No
2019/02/26,15:00,0.216,0.195,0.319,0.298,0.278,0.158,0.096,north-northeast,5.0,No
2019/02/26,15:10,0.217,0.195,0.318,0.297,0.279,0.159,0.096,north-northeast,3.7,No
2019/02/26,15:20,0.218,0.195,0.320,0.298,0.279,0.158,0.096,northeast,4.2,No
2019/02/26,15:30,0.217,0.196,0.319,0.299,0.279,0.159,0.096,north-northeast,5.4,No
2019/02/26,15:40,0.217,0.196,0.318,0.296,0.281,0.159,0.095,north-northeast,4.1,No
2019/02/26,15:50,0.217,0.195,0.318,0.297,0.279,0.159,0.096,northeast,3.7,No
2019/02/26,16:00,0.217,0.195,0.318,0.298,0.279,0.160,0.096,north-northeast,2.4,No
2019/02/26,16:10,0.217,0.196,0.318,0.296,0.281,0.159,0.096,north,3.3,No
2019/02/26,16:20,0.217,0.196,0.318,0.297,0.277,0.158,0.096,north-northeast,2.8,No
2019/02/26,16:30,0.217,0.194,0.318,0.296,0.278,0.159,0.097,north-northeast,1.8,No
2019/02/26,16:40,0.217,0.196,0.317,0.296,0.279,0.160,0.096,north-northeast,2.0,No
2019/02/26,16:50,0.216,0.196,0.318,0.297,0.278,0.160,0.096,north-northwest,1.5,No
2019/02/26,17:00,0.218,0.195,0.317,0.297,0.278,0.160,0.096,north,2.7,No
2019/02/26,17:10,0.217,0.195,0.318,0.297,0.279,0.160,0.096,north,0.8,No
2019/02/26,17:20,0.217,0.196,0.317,0.297,0.278,0.160,0.096,north,1.1,No
2019/02/26,17:30,0.217,0.195,0.317,0.297,0.278,0.159,0.096,north-northwest,0.8,No
2019/02/26,17:40,0.216,0.196,0.318,0.296,0.277,0.160,0.096,north,1.3,No
2019/02/26,17:50,0.217,0.196,0.319,0.297,0.279,0.160,0.096,north-northwest,1.0,No
2019/02/26,18:00,0.217,0.196,0.318,0.298,0.278,0.160,0.096,north-northeast,1.3,No
2019/02/26,18:10,0.217,0.195,0.318,0.297,0.278,0.159,0.096,north-northwest,1.6,No
2019/02/26,18:20,0.218,0.194,0.318,0.299,0.279,0.159,0.096,north-northwest,1.7,No
2019/02/26,18:30,0.217,0.196,0.317,0.297,0.278,0.159,0.096,northwest,2.3,No
2019/02/26,18:40,0.218,0.197,0.317,0.298,0.277,0.160,0.095,northwest,3.1,No
2019/02/26,18:50,0.218,0.195,0.317,0.296,0.278,0.159,0.096,northwest,3.2,No
2019/02/26,19:00,0.216,0.195,0.317,0.297,0.278,0.159,0.096,northwest,5.0,No
2019/02/26,19:10,0.218,0.195,0.319,0.297,0.278,0.158,0.096,northwest,5.8,No
2019/02/26,19:20,0.217,0.196,0.319,0.298,0.277,0.158,0.096,northwest,4.8,No
2019/02/26,19:30,0.217,0.197,0.318,0.297,0.279,0.159,0.096,northwest,3.8,No
2019/02/26,19:40,0.217,0.196,0.318,0.296,0.279,0.159,0.095,northwest,4.0,No
2019/02/26,19:50,0.217,0.196,0.319,0.298,0.278,0.159,0.096,northwest,3.5,No
2019/02/26,20:00,0.217,0.196,0.318,0.298,0.278,0.159,0.096,northwest,3.9,No
2019/02/26,20:10,0.216,0.196,0.319,0.297,0.277,0.159,0.095,north-northwest,3.5,No
2019/02/26,20:20,0.217,0.195,0.318,0.296,0.278,0.159,0.096,north-northwest,3.6,No
2019/02/26,20:30,0.216,0.195,0.318,0.297,0.277,0.159,0.095,north-northwest,3.9,No
2019/02/26,20:40,0.218,0.195,0.318,0.297,0.278,0.159,0.096,north-northwest,3.6,No
2019/02/26,20:50,0.216,0.195,0.317,0.297,0.277,0.159,0.095,northwest,3.3,No
2019/02/26,21:00,0.217,0.196,0.319,0.297,0.277,0.159,0.097,north-northwest,3.1,No
2019/02/26,21:10,0.217,0.196,0.318,0.296,0.278,0.160,0.095,northwest,2.1,No
2019/02/26,21:20,0.217,0.196,0.319,0.296,0.277,0.160,0.095,northwest,2.2,No
2019/02/26,21:30,0.217,0.195,0.318,0.298,0.280,0.160,0.096,north-northwest,3.0,No
2019/02/26,21:40,0.217,0.196,0.318,0.298,0.278,0.159,0.096,northwest,4.1,No
2019/02/26,21:50,0.216,0.196,0.318,0.297,0.278,0.160,0.096,northwest,2.4,No
2019/02/26,22:00,0.217,0.196,0.319,0.296,0.279,0.158,0.096,north-northwest,3.5,No
2019/02/26,22:10,0.217,0.196,0.318,0.297,0.278,0.160,0.096,north-northwest,4.4,No
2019/02/26,22:20,0.216,0.196,0.318,0.298,0.278,0.160,0.096,northwest,4.6,No
2019/02/26,22:30,0.216,0.196,0.320,0.297,0.276,0.160,0.096,northwest,4.5,No
2019/02/26,22:40,0.217,0.196,0.318,0.298,0.278,0.159,0.096,northwest,3.6,No
2019/02/26,22:50,0.218,0.195,0.319,0.297,0.278,0.160,0.096,north-northwest,5.3,No
2019/02/26,23:00,0.217,0.195,0.317,0.296,0.278,0.159,0.096,north-northwest,6.7,No
2019/02/26,23:10,0.217,0.196,0.318,0.298,0.278,0.159,0.096,north-northwest,7.4,No
2019/02/26,23:20,0.217,0.196,0.319,0.297,0.278,0.160,0.096,northwest,7.4,No
2019/02/26,23:30,0.216,0.196,0.319,0.298,0.279,0.159,0.097,north-northwest,7.0,No
2019/02/26,23:40,0.218,0.195,0.318,0.298,0.279,0.160,0.095,north-northwest,6.2,No
2019/02/26,23:50,0.216,0.195,0.320,0.297,0.278,0.160,0.096,north-northwest,6.2,No
